Time,TemperatureF,DewpointF,PressureIn,WindDirection,WindDirectionDegrees,WindSpeedMPH,WindSpeedGustMPH,Humidity,HourlyPrecipIn,Conditions,Clouds,dailyrainin,SoftwareType,DateUTC
2013-02-17 00:00:00,41.9,37.7,30.01,North,355,0.0,3.0,85,0.00,,---,0.00,VWS V14.01,2013-02-17 08:00:00,
2013-02-17 00:05:00,42.8,38.0,30.01,North,355,0.0,1.0,83,0.00,,---,0.00,VWS V14.01,2013-02-17 08:05:00,
2013-02-17 00:10:00,43.5,38.1,30.01,North,355,0.0,1.0,81,0.00,,---,0.00,VWS V14.01,2013-02-17 08:10:00,
2013-02-17 00:15:00,43.4,37.7,30.01,North,355,0.0,2.0,80,0.00,,---,0.00,VWS V14.01,2013-02-17 08:15:00,
2013-02-17 00:20:00,43.5,37.4,30.01,North,355,0.0,2.0,79,0.00,,---,0.00,VWS V14.01,2013-02-17 08:20:00,
2013-02-17 00:25:00,43.4,37.7,30.01,North,355,0.0,2.0,80,0.00,,---,0.00,VWS V14.01,2013-02-17 08:25:00,
2013-02-17 00:30:00,43.8,37.7,30.01,North,355,0.0,2.0,79,0.00,,---,0.00,VWS V14.01,2013-02-17 08:30:00,
2013-02-17 00:35:00,44.2,37.8,30.01,North,355,0.0,2.0,78,0.00,,---,0.00,VWS V14.01,2013-02-17 08:35:00,
2013-02-17 00:40:00,43.6,37.2,30.01,North,355,1.0,2.0,78,0.00,,---,0.00,VWS V14.01,2013-02-17 08:40:00,
2013-02-17 00:45:00,42.7,36.7,30.01,North,355,0.0,2.0,79,0.00,,---,0.00,VWS V14.01,2013-02-17 08:45:00,
2013-02-17 00:50:00,42.4,37.0,30.01,North,355,0.0,2.0,81,0.00,,---,0.00,VWS V14.01,2013-02-17 08:50:00,
2013-02-17 00:55:00,43.0,37.3,30.00,North,355,0.0,2.0,80,0.00,,---,0.00,VWS V14.01,2013-02-17 08:55:00,
2013-02-17 01:00:00,43.3,36.9,30.01,North,355,0.0,2.0,78,0.00,,---,0.00,VWS V14.01,2013-02-17 09:00:00,
2013-02-17 01:05:00,43.1,37.0,30.01,North,355,0.0,1.0,79,0.00,,---,0.00,VWS V14.01,2013-02-17 09:05:00,
2013-02-17 01:10:00,42.8,36.8,30.01,North,355,2.0,3.0,79,0.00,,---,0.00,VWS V14.01,2013-02-17 09:10:00,
2013-02-17 01:15:00,41.9,36.2,30.01,North,355,1.0,3.0,80,0.00,,---,0.00,VWS V14.01,2013-02-17 09:15:00,
2013-02-17 01:20:00,41.5,36.1,30.01,North,355,0.0,3.0,81,0.00,,---,0.00,VWS V14.01,2013-02-17 09:20:00,
2013-02-17 01:25:00,42.0,36.6,30.01,North,355,0.0,3.0,81,0.00,,---,0.00,VWS V14.01,2013-02-17 09:25:00,
2013-02-17 01:30:00,42.0,36.3,30.00,North,355,0.0,3.0,80,0.00,,---,0.00,VWS V14.01,2013-02-17 09:30:00,
2013-02-17 01:35:00,41.9,36.2,30.00,North,355,1.0,3.0,80,0.00,,---,0.00,VWS V14.01,2013-02-17 09:35:00,
2013-02-17 01:40:00,41.6,36.2,30.00,North,355,0.0,3.0,81,0.00,,---,0.00,VWS V14.01,2013-02-17 09:40:00,
2013-02-17 01:45:00,41.4,36.3,30.00,North,355,1.0,3.0,82,0.00,,---,0.00,VWS V14.01,2013-02-17 09:45:00,
2013-02-17 01:50:00,41.4,36.0,30.00,North,355,1.0,3.0,81,0.00,,---,0.00,VWS V14.01,2013-02-17 09:50:00,
2013-02-17 01:55:00,41.9,36.5,30.00,North,355,0.0,3.0,81,0.00,,---,0.00,VWS V14.01,2013-02-17 09:55:00,
2013-02-17 02:00:00,41.6,35.9,30.00,North,355,1.0,3.0,80,0.00,,---,0.00,VWS V14.01,2013-02-17 10:00:00,
2013-02-17 02:05:00,41.1,36.0,30.00,North,355,0.0,2.0,82,0.00,,---,0.00,VWS V14.01,2013-02-17 10:05:00,
2013-02-17 02:10:00,41.3,35.9,30.00,North,355,0.0,2.0,81,0.00,,---,0.00,VWS V14.01,2013-02-17 10:10:00,
2013-02-17 02:15:00,41.0,35.9,30.00,North,355,0.0,2.0,82,0.00,,---,0.00,VWS V14.01,2013-02-17 10:15:00,
2013-02-17 02:20:00,40.9,35.8,30.00,North,355,0.0,2.0,82,0.00,,---,0.00,VWS V14.01,2013-02-17 10:20:00,
2013-02-17 02:25:00,40.7,35.0,30.00,North,355,3.0,3.0,80,0.00,,---,0.00,VWS V14.01,2013-02-17 10:25:00,
2013-02-17 02:30:00,40.1,35.4,30.00,North,355,0.0,3.0,83,0.00,,---,0.00,VWS V14.01,2013-02-17 10:30:00,
2013-02-17 02:35:00,40.2,36.1,30.00,North,355,2.0,3.0,85,0.00,,---,0.00,VWS V14.01,2013-02-17 10:35:00,
2013-02-17 02:40:00,41.0,35.6,29.99,North,355,1.0,3.0,81,0.00,,---,0.00,VWS V14.01,2013-02-17 10:40:00,
2013-02-17 02:45:00,41.0,35.3,29.99,North,355,1.0,3.0,80,0.00,,---,0.00,VWS V14.01,2013-02-17 10:45:00,
2013-02-17 02:50:00,40.2,34.8,29.99,North,355,1.0,3.0,81,0.00,,---,0.00,VWS V14.01,2013-02-17 10:50:00,
2013-02-17 02:55:00,39.5,34.8,29.99,North,355,0.0,3.0,83,0.00,,---,0.00,VWS V14.01,2013-02-17 10:55:00,
2013-02-17 03:00:00,39.2,35.1,29.99,North,355,1.0,3.0,85,0.00,,---,0.00,VWS V14.01,2013-02-17 11:00:00,
2013-02-17 03:05:00,39.4,34.7,29.98,North,355,0.0,2.0,83,0.00,,---,0.00,VWS V14.01,2013-02-17 11:05:00,
2013-02-17 03:10:00,38.8,34.1,29.98,North,355,0.0,2.0,83,0.00,,---,0.00,VWS V14.01,2013-02-17 11:10:00,
2013-02-17 03:15:00,38.5,33.8,29.98,North,355,0.0,2.0,83,0.00,,---,0.00,VWS V14.01,2013-02-17 11:15:00,
2013-02-17 03:20:00,38.7,34.9,29.98,North,355,0.0,2.0,86,0.00,,---,0.00,VWS V14.01,2013-02-17 11:20:00,
2013-02-17 03:25:00,38.9,34.2,29.98,North,355,1.0,2.0,83,0.00,,---,0.00,VWS V14.01,2013-02-17 11:25:00,
2013-02-17 03:30:00,38.5,34.7,29.98,North,355,0.0,2.0,86,0.00,,---,0.00,VWS V14.01,2013-02-17 11:30:00,
2013-02-17 03:35:00,39.0,35.2,29.98,North,355,1.0,2.0,86,0.00,,---,0.00,VWS V14.01,2013-02-17 11:35:00,
2013-02-17 03:40:00,39.1,34.7,29.98,North,355,2.0,2.0,84,0.00,,---,0.00,VWS V14.01,2013-02-17 11:40:00,
2013-02-17 03:45:00,38.7,34.6,29.98,North,355,1.0,2.0,85,0.00,,---,0.00,VWS V14.01,2013-02-17 11:45:00,
2013-02-17 03:50:00,38.6,34.2,29.98,North,355,1.0,2.0,84,0.00,,---,0.00,VWS V14.01,2013-02-17 11:50:00,
2013-02-17 03:55:00,38.3,34.2,29.98,North,355,0.0,2.0,85,0.00,,---,0.00,VWS V14.01,2013-02-17 11:55:00,
2013-02-17 04:00:00,38.2,34.4,29.98,North,355,1.0,2.0,86,0.00,,---,0.00,VWS V14.01,2013-02-17 12:00:00,
2013-02-17 04:05:00,38.0,34.5,29.98,North,355,0.0,1.0,87,0.00,,---,0.00,VWS V14.01,2013-02-17 12:05:00,
2013-02-17 04:10:00,38.0,34.2,29.98,North,355,0.0,1.0,86,0.00,,---,0.00,VWS V14.01,2013-02-17 12:10:00,
2013-02-17 04:15:00,38.0,34.5,29.97,North,355,1.0,1.0,87,0.00,,---,0.00,VWS V14.01,2013-02-17 12:15:00,
2013-02-17 04:20:00,38.1,33.4,29.97,North,355,0.0,1.0,83,0.00,,---,0.00,VWS V14.01,2013-02-17 12:20:00,
2013-02-17 04:25:00,37.3,33.2,29.97,North,355,1.0,2.0,85,0.00,,---,0.00,VWS V14.01,2013-02-17 12:25:00,
2013-02-17 04:30:00,37.1,33.6,29.97,North,355,0.0,2.0,87,0.00,,---,0.00,VWS V14.01,2013-02-17 12:30:00,
2013-02-17 04:35:00,37.3,34.1,29.97,North,355,0.0,2.0,88,0.00,,---,0.00,VWS V14.01,2013-02-17 12:35:00,
2013-02-17 04:40:00,37.4,33.9,29.98,North,355,0.0,2.0,87,0.00,,---,0.00,VWS V14.01,2013-02-17 12:40:00,
2013-02-17 04:45:00,37.4,33.9,29.98,North,355,0.0,2.0,87,0.00,,---,0.00,VWS V14.01,2013-02-17 12:45:00,
2013-02-17 04:50:00,37.3,33.8,29.98,North,355,0.0,2.0,87,0.00,,---,0.00,VWS V14.01,2013-02-17 12:50:00,
2013-02-17 04:55:00,37.4,34.2,29.98,North,355,0.0,2.0,88,0.00,,---,0.00,VWS V14.01,2013-02-17 12:55:00,
2013-02-17 05:00:00,37.5,34.3,29.98,North,355,1.0,2.0,88,0.00,,---,0.00,VWS V14.01,2013-02-17 13:00:00,
2013-02-17 05:05:00,37.5,34.0,29.98,North,355,0.0,0.0,87,0.00,,---,0.00,VWS V14.01,2013-02-17 13:05:00,
2013-02-17 05:10:00,37.5,34.0,29.98,North,355,0.0,1.0,87,0.00,,---,0.00,VWS V14.01,2013-02-17 13:10:00,
2013-02-17 05:15:00,37.3,32.9,29.98,North,355,0.0,1.0,84,0.00,,---,0.00,VWS V14.01,2013-02-17 13:15:00,
2013-02-17 05:20:00,36.3,31.9,29.98,North,355,1.0,2.0,84,0.00,,---,0.00,VWS V14.01,2013-02-17 13:20:00,
2013-02-17 05:25:00,36.3,33.4,29.98,North,355,0.0,2.0,89,0.00,,---,0.00,VWS V14.01,2013-02-17 13:25:00,
2013-02-17 05:30:00,36.8,33.9,29.98,North,355,0.0,2.0,89,0.00,,---,0.00,VWS V14.01,2013-02-17 13:30:00,
2013-02-17 05:35:00,37.0,33.5,29.98,North,355,0.0,2.0,87,0.00,,---,0.00,VWS V14.01,2013-02-17 13:35:00,
2013-02-17 05:40:00,36.8,33.3,29.98,North,355,0.0,2.0,87,0.00,,---,0.00,VWS V14.01,2013-02-17 13:40:00,
2013-02-17 05:45:00,36.8,33.6,29.98,North,355,0.0,2.0,88,0.00,,---,0.00,VWS V14.01,2013-02-17 13:45:00,
2013-02-17 05:50:00,36.9,33.4,29.98,North,355,0.0,2.0,87,0.00,,---,0.00,VWS V14.01,2013-02-17 13:50:00,
2013-02-17 05:55:00,36.2,32.4,29.98,North,355,0.0,2.0,86,0.00,,---,0.00,VWS V14.01,2013-02-17 13:55:00,
2013-02-17 06:00:00,36.0,32.8,29.98,North,355,0.0,2.0,88,0.00,,---,0.00,VWS V14.01,2013-02-17 14:00:00,
2013-02-17 06:05:00,36.3,33.4,29.98,North,355,0.0,1.0,89,0.00,,---,0.00,VWS V14.01,2013-02-17 14:05:00,
2013-02-17 06:10:00,36.4,33.2,29.98,North,355,1.0,2.0,88,0.00,,---,0.00,VWS V14.01,2013-02-17 14:10:00,
2013-02-17 06:15:00,36.5,33.3,29.98,North,355,1.0,2.0,88,0.00,,---,0.00,VWS V14.01,2013-02-17 14:15:00,
2013-02-17 06:20:00,36.3,32.8,29.98,North,355,0.0,2.0,87,0.00,,---,0.00,VWS V14.01,2013-02-17 14:20:00,
2013-02-17 06:25:00,36.3,33.1,29.98,North,355,0.0,2.0,88,0.00,,---,0.00,VWS V14.01,2013-02-17 14:25:00,
2013-02-17 06:30:00,36.3,33.1,29.98,North,355,0.0,2.0,88,0.00,,---,0.00,VWS V14.01,2013-02-17 14:30:00,
2013-02-17 06:35:00,36.5,33.3,29.98,North,355,0.0,2.0,88,0.00,,---,0.00,VWS V14.01,2013-02-17 14:35:00,
2013-02-17 06:40:00,36.6,33.4,29.98,North,355,0.0,2.0,88,0.00,,---,0.00,VWS V14.01,2013-02-17 14:40:00,
2013-02-17 06:45:00,36.2,32.4,29.98,North,355,0.0,2.0,86,0.00,,---,0.00,VWS V14.01,2013-02-17 14:45:00,
2013-02-17 06:50:00,35.8,32.0,29.98,North,355,0.0,2.0,86,0.00,,---,0.00,VWS V14.01,2013-02-17 14:50:00,
2013-02-17 06:55:00,35.2,31.7,29.98,North,355,0.0,2.0,87,0.00,,---,0.00,VWS V14.01,2013-02-17 14:55:00,
2013-02-17 07:00:00,35.0,32.1,29.98,North,355,1.0,2.0,89,0.00,,---,0.00,VWS V14.01,2013-02-17 15:00:00,
2013-02-17 07:05:00,34.8,31.6,29.99,North,355,0.0,1.0,88,0.00,,---,0.00,VWS V14.01,2013-02-17 15:05:00,
2013-02-17 07:10:00,34.9,32.3,29.99,North,355,0.0,1.0,90,0.00,,---,0.00,VWS V14.01,2013-02-17 15:10:00,
2013-02-17 07:15:00,35.2,32.6,29.98,North,355,0.0,1.0,90,0.00,,---,0.00,VWS V14.01,2013-02-17 15:15:00,
2013-02-17 07:20:00,35.6,32.7,29.98,North,355,0.0,2.0,89,0.00,,---,0.00,VWS V14.01,2013-02-17 15:20:00,
2013-02-17 07:25:00,35.6,32.4,29.99,North,355,0.0,2.0,88,0.00,,---,0.00,VWS V14.01,2013-02-17 15:25:00,
2013-02-17 07:30:00,35.9,33.0,29.98,North,355,0.0,2.0,89,0.00,,---,0.00,VWS V14.01,2013-02-17 15:30:00,
2013-02-17 07:35:00,35.9,33.0,29.99,North,355,1.0,2.0,89,0.00,,---,0.00,VWS V14.01,2013-02-17 15:35:00,
2013-02-17 07:40:00,36.0,33.1,29.99,North,355,0.0,2.0,89,0.00,,---,0.00,VWS V14.01,2013-02-17 15:40:00,
2013-02-17 07:45:00,36.4,33.8,29.99,North,355,0.0,2.0,90,0.00,,---,0.00,VWS V14.01,2013-02-17 15:45:00,
2013-02-17 07:50:00,37.0,34.3,29.99,North,355,0.0,2.0,90,0.00,,---,0.00,VWS V14.01,2013-02-17 15:50:00,
2013-02-17 07:55:00,37.5,34.6,29.99,North,355,0.0,2.0,89,0.00,,---,0.00,VWS V14.01,2013-02-17 15:55:00,
2013-02-17 08:00:00,38.1,35.4,29.99,North,355,0.0,2.0,90,0.00,,---,0.00,VWS V14.01,2013-02-17 16:00:00,
2013-02-17 08:05:00,38.6,35.6,29.99,North,355,0.0,0.0,89,0.00,,---,0.00,VWS V14.01,2013-02-17 16:05:00,
2013-02-17 08:10:00,39.9,36.9,29.99,North,355,0.0,0.0,89,0.00,,---,0.00,VWS V14.01,2013-02-17 16:10:00,
2013-02-17 08:15:00,40.7,37.7,29.99,North,355,0.0,0.0,89,0.00,,---,0.00,VWS V14.01,2013-02-17 16:15:00,
2013-02-17 08:20:00,41.4,38.4,29.99,North,355,0.0,0.0,89,0.00,,---,0.00,VWS V14.01,2013-02-17 16:20:00,
2013-02-17 08:25:00,42.2,39.2,30.00,North,355,0.0,0.0,89,0.00,,---,0.00,VWS V14.01,2013-02-17 16:25:00,
2013-02-17 08:30:00,43.1,39.5,30.00,North,355,0.0,0.0,87,0.00,,---,0.00,VWS V14.01,2013-02-17 16:30:00,
2013-02-17 08:35:00,44.0,39.8,30.00,North,355,0.0,0.0,85,0.00,,---,0.00,VWS V14.01,2013-02-17 16:35:00,
2013-02-17 08:40:00,44.7,39.2,30.00,North,355,0.0,0.0,81,0.00,,---,0.00,VWS V14.01,2013-02-17 16:40:00,
2013-02-17 08:45:00,45.4,39.6,30.00,North,355,0.0,0.0,80,0.00,,---,0.00,VWS V14.01,2013-02-17 16:45:00,
2013-02-17 08:50:00,46.1,40.0,30.00,North,355,0.0,0.0,79,0.00,,---,0.00,VWS V14.01,2013-02-17 16:50:00,
2013-02-17 08:55:00,47.3,40.5,30.00,North,355,0.0,1.0,77,0.00,,---,0.00,VWS V14.01,2013-02-17 16:55:00,
2013-02-17 09:00:00,48.5,41.3,30.00,North,355,0.0,1.0,76,0.00,,---,0.00,VWS V14.01,2013-02-17 17:00:00,
2013-02-17 09:05:00,49.6,41.3,30.00,North,355,0.0,0.0,73,0.00,,---,0.00,VWS V14.01,2013-02-17 17:05:00,
2013-02-17 09:10:00,50.4,40.2,30.00,North,355,0.0,1.0,68,0.00,,---,0.00,VWS V14.01,2013-02-17 17:10:00,
2013-02-17 09:15:00,51.2,40.2,30.01,NNW,327,3.0,3.0,66,0.00,,---,0.00,VWS V14.01,2013-02-17 17:15:00,
2013-02-17 09:20:00,51.6,39.4,30.01,WNW,290,1.0,4.0,63,0.00,,---,0.00,VWS V14.01,2013-02-17 17:20:00,
2013-02-17 09:25:00,51.8,40.0,30.00,WNW,290,1.0,4.0,64,0.00,,---,0.00,VWS V14.01,2013-02-17 17:25:00,
2013-02-17 09:30:00,52.1,39.1,30.00,WNW,289,0.0,4.0,61,0.00,,---,0.00,VWS V14.01,2013-02-17 17:30:00,
2013-02-17 09:35:00,52.6,40.0,30.00,West,280,1.0,4.0,62,0.00,,---,0.00,VWS V14.01,2013-02-17 17:35:00,
2013-02-17 09:40:00,53.0,40.3,30.00,WSW,258,0.0,4.0,62,0.00,,---,0.00,VWS V14.01,2013-02-17 17:40:00,
2013-02-17 09:45:00,53.5,40.0,30.00,South,184,1.0,4.0,60,0.00,,---,0.00,VWS V14.01,2013-02-17 17:45:00,
2013-02-17 09:50:00,53.9,39.9,30.00,South,181,0.0,4.0,59,0.00,,---,0.00,VWS V14.01,2013-02-17 17:50:00,
2013-02-17 09:55:00,54.2,39.3,30.00,South,180,2.0,4.0,57,0.00,,---,0.00,VWS V14.01,2013-02-17 17:55:00,
2013-02-17 10:00:00,54.4,40.0,30.00,South,176,1.0,4.0,58,0.00,,---,0.00,VWS V14.01,2013-02-17 18:00:00,
2013-02-17 10:05:00,54.6,39.7,30.00,South,177,3.0,3.0,57,0.00,,---,0.00,VWS V14.01,2013-02-17 18:05:00,
2013-02-17 10:10:00,54.9,40.4,30.00,South,190,1.0,4.0,58,0.00,,---,0.00,VWS V14.01,2013-02-17 18:10:00,
2013-02-17 10:15:00,55.1,41.9,30.00,South,188,0.0,4.0,61,0.00,,---,0.00,VWS V14.01,2013-02-17 18:15:00,
2013-02-17 10:20:00,55.5,41.0,30.00,WSW,240,0.0,4.0,58,0.00,,---,0.00,VWS V14.01,2013-02-17 18:20:00,
2013-02-17 10:25:00,55.6,40.6,30.00,SSW,211,2.0,5.0,57,0.00,,---,0.00,VWS V14.01,2013-02-17 18:25:00,
2013-02-17 10:30:00,55.7,41.2,30.00,WNW,288,4.0,5.0,58,0.00,,---,0.00,VWS V14.01,2013-02-17 18:30:00,
2013-02-17 10:35:00,56.0,42.3,30.00,SW,223,2.0,5.0,60,0.00,,---,0.00,VWS V14.01,2013-02-17 18:35:00,
2013-02-17 10:40:00,56.3,42.6,30.00,SSW,205,2.0,6.0,60,0.00,,---,0.00,VWS V14.01,2013-02-17 18:40:00,
2013-02-17 10:45:00,56.6,42.9,30.01,South,181,1.0,6.0,60,0.00,,---,0.00,VWS V14.01,2013-02-17 18:45:00,
2013-02-17 10:49:00,56.9,42.3,30.00,West,272,3.0,6.0,58,0.00,,---,0.00,VWS V14.01,2013-02-17 18:49:00,
2013-02-17 10:55:00,57.0,42.4,30.01,West,277,5.0,7.0,58,0.00,,---,0.00,VWS V14.01,2013-02-17 18:55:00,
2013-02-17 11:00:00,57.0,41.0,30.00,SSW,207,1.0,7.0,55,0.00,,---,0.00,VWS V14.01,2013-02-17 19:00:00,
2013-02-17 11:05:00,57.2,40.2,30.00,South,188,3.0,6.0,53,0.00,,---,0.00,VWS V14.01,2013-02-17 19:05:00,
2013-02-17 11:10:00,57.3,39.8,30.00,SSW,212,2.0,6.0,52,0.00,,---,0.00,VWS V14.01,2013-02-17 19:10:00,
2013-02-17 11:15:00,57.7,40.7,30.00,WSW,245,2.0,6.0,53,0.00,,---,0.00,VWS V14.01,2013-02-17 19:15:00,
2013-02-17 11:20:00,58.1,40.6,30.00,West,277,5.0,6.0,52,0.00,,---,0.00,VWS V14.01,2013-02-17 19:20:00,
2013-02-17 11:24:00,58.1,40.6,30.00,West,275,2.0,7.0,52,0.00,,---,0.00,VWS V14.01,2013-02-17 19:24:00,
2013-02-17 11:29:00,58.4,41.8,30.00,West,266,3.0,8.0,54,0.00,,---,0.00,VWS V14.01,2013-02-17 19:29:00,
2013-02-17 11:34:00,58.8,41.7,29.99,West,269,3.0,8.0,53,0.00,,---,0.00,VWS V14.01,2013-02-17 19:34:00,
2013-02-17 11:39:00,59.2,42.1,29.99,WSW,248,2.0,8.0,53,0.00,,---,0.00,VWS V14.01,2013-02-17 19:39:00,
2013-02-17 11:44:00,59.5,40.9,29.99,West,265,3.0,8.0,50,0.00,,---,0.00,VWS V14.01,2013-02-17 19:44:00,
2013-02-17 11:49:00,59.8,42.2,29.99,SSW,193,2.0,8.0,52,0.00,,---,0.00,VWS V14.01,2013-02-17 19:49:00,
2013-02-17 11:54:00,60.2,41.5,29.99,West,266,5.0,8.0,50,0.00,,---,0.00,VWS V14.01,2013-02-17 19:54:00,
2013-02-17 11:59:00,60.4,41.2,29.98,West,260,1.0,8.0,49,0.00,,---,0.00,VWS V14.01,2013-02-17 19:59:00,
2013-02-17 12:04:00,60.6,41.4,29.98,NW,319,2.0,4.0,49,0.00,,---,0.00,VWS V14.01,2013-02-17 20:04:00,
2013-02-17 12:09:00,60.8,41.0,29.98,West,269,4.0,5.0,48,0.00,,---,0.00,VWS V14.01,2013-02-17 20:09:00,
2013-02-17 12:14:00,61.1,40.7,29.98,West,269,0.0,7.0,47,0.00,,---,0.00,VWS V14.01,2013-02-17 20:14:00,
2013-02-17 12:19:00,61.3,39.8,29.98,NNW,338,3.0,7.0,45,0.00,,---,0.00,VWS V14.01,2013-02-17 20:19:00,
2013-02-17 12:24:00,61.3,39.2,29.98,West,281,3.0,7.0,44,0.00,,---,0.00,VWS V14.01,2013-02-17 20:24:00,
2013-02-17 12:29:00,61.4,39.3,29.97,West,281,3.0,8.0,44,0.00,,---,0.00,VWS V14.01,2013-02-17 20:29:00,
2013-02-17 12:34:00,62.0,40.4,29.97,WNW,293,7.0,8.0,45,0.00,,---,0.00,VWS V14.01,2013-02-17 20:34:00,
2013-02-17 12:39:00,62.1,38.8,29.97,WNW,287,1.0,8.0,42,0.00,,---,0.00,VWS V14.01,2013-02-17 20:39:00,
2013-02-17 12:44:00,62.3,38.9,29.97,West,275,0.0,8.0,42,0.00,,---,0.00,VWS V14.01,2013-02-17 20:44:00,
2013-02-17 12:49:00,62.6,39.2,29.96,West,273,4.0,8.0,42,0.00,,---,0.00,VWS V14.01,2013-02-17 20:49:00,
2013-02-17 12:54:00,62.8,40.6,29.96,NW,320,1.0,8.0,44,0.00,,---,0.00,VWS V14.01,2013-02-17 20:54:00,
2013-02-17 12:59:00,62.9,39.5,29.96,NW,318,2.0,8.0,42,0.00,,---,0.00,VWS V14.01,2013-02-17 20:59:00,
2013-02-17 13:04:00,63.3,39.2,29.96,SW,221,1.0,4.0,41,0.00,,---,0.00,VWS V14.01,2013-02-17 21:04:00,
2013-02-17 13:09:00,64.1,39.3,29.95,SW,215,0.0,6.0,40,0.00,,---,0.00,VWS V14.01,2013-02-17 21:09:00,
2013-02-17 13:14:00,64.5,39.0,29.95,West,269,1.0,6.0,39,0.00,,---,0.00,VWS V14.01,2013-02-17 21:14:00,
2013-02-17 13:19:00,64.8,38.6,29.95,South,190,3.0,6.0,38,0.00,,---,0.00,VWS V14.01,2013-02-17 21:19:00,
2013-02-17 13:24:00,65.0,38.1,29.95,SW,229,4.0,6.0,37,0.00,,---,0.00,VWS V14.01,2013-02-17 21:24:00,
2013-02-17 13:29:00,65.2,38.3,29.95,South,190,3.0,6.0,37,0.00,,---,0.00,VWS V14.01,2013-02-17 21:29:00,
2013-02-17 13:34:00,65.4,38.5,29.94,SW,227,0.0,6.0,37,0.00,,---,0.00,VWS V14.01,2013-02-17 21:34:00,
2013-02-17 13:39:00,65.8,38.8,29.94,West,278,3.0,6.0,37,0.00,,---,0.00,VWS V14.01,2013-02-17 21:39:00,
2013-02-17 13:44:00,66.1,38.4,29.94,WSW,248,3.0,6.0,36,0.00,,---,0.00,VWS V14.01,2013-02-17 21:44:00,
2013-02-17 13:49:00,65.9,38.2,29.94,West,267,1.0,6.0,36,0.00,,---,0.00,VWS V14.01,2013-02-17 21:49:00,
2013-02-17 13:54:00,66.1,39.1,29.94,WNW,298,0.0,6.0,37,0.00,,---,0.00,VWS V14.01,2013-02-17 21:54:00,
2013-02-17 13:59:00,66.3,38.6,29.93,WSW,258,1.0,6.0,36,0.00,,---,0.00,VWS V14.01,2013-02-17 21:59:00,
2013-02-17 14:04:00,66.5,38.0,29.94,WSW,241,0.0,4.0,35,0.00,,---,0.00,VWS V14.01,2013-02-17 22:04:00,
2013-02-17 14:09:00,66.7,38.2,29.93,WSW,242,2.0,5.0,35,0.00,,---,0.00,VWS V14.01,2013-02-17 22:09:00,
2013-02-17 14:14:00,67.0,38.5,29.93,WSW,250,2.0,5.0,35,0.00,,---,0.00,VWS V14.01,2013-02-17 22:14:00,
2013-02-17 14:19:00,67.1,37.8,29.93,WSW,256,1.0,6.0,34,0.00,,---,0.00,VWS V14.01,2013-02-17 22:19:00,
2013-02-17 14:24:00,67.1,37.8,29.93,West,280,1.0,6.0,34,0.00,,---,0.00,VWS V14.01,2013-02-17 22:24:00,
2013-02-17 14:29:00,67.0,37.0,29.92,West,263,1.0,6.0,33,0.00,,---,0.00,VWS V14.01,2013-02-17 22:29:00,
2013-02-17 14:34:00,67.3,37.2,29.92,WNW,286,2.0,6.0,33,0.00,,---,0.00,VWS V14.01,2013-02-17 22:34:00,
2013-02-17 14:39:00,67.3,37.2,29.92,WNW,286,0.0,6.0,33,0.00,,---,0.00,VWS V14.01,2013-02-17 22:39:00,
2013-02-17 14:44:00,67.7,37.6,29.92,WSW,246,1.0,6.0,33,0.00,,---,0.00,VWS V14.01,2013-02-17 22:44:00,
2013-02-17 14:49:00,67.9,37.8,29.92,WSW,246,0.0,6.0,33,0.00,,---,0.00,VWS V14.01,2013-02-17 22:49:00,
2013-02-17 14:54:00,68.0,37.8,29.92,NNW,337,4.0,6.0,33,0.00,,---,0.00,VWS V14.01,2013-02-17 22:54:00,
2013-02-17 14:59:00,67.4,36.5,29.92,WNW,288,2.0,6.0,32,0.00,,---,0.00,VWS V14.01,2013-02-17 22:59:00,
2013-02-17 15:04:00,67.1,36.3,29.92,WNW,289,1.0,3.0,32,0.00,,---,0.00,VWS V14.01,2013-02-17 23:04:00,
2013-02-17 15:09:00,67.2,36.4,29.92,NW,310,2.0,3.0,32,0.00,,---,0.00,VWS V14.01,2013-02-17 23:09:00,
2013-02-17 15:14:00,67.2,38.7,29.92,WNW,292,0.0,5.0,35,0.00,,---,0.00,VWS V14.01,2013-02-17 23:14:00,
2013-02-17 15:19:00,66.8,36.8,29.92,NNW,339,1.0,7.0,33,0.00,,---,0.00,VWS V14.01,2013-02-17 23:19:00,
2013-02-17 15:24:00,66.8,37.6,29.91,WNW,288,0.0,7.0,34,0.00,,---,0.00,VWS V14.01,2013-02-17 23:24:00,
2013-02-17 15:29:00,67.0,36.2,29.91,WNW,288,0.0,7.0,32,0.00,,---,0.00,VWS V14.01,2013-02-17 23:29:00,
2013-02-17 15:34:00,67.6,35.9,29.91,West,261,2.0,7.0,31,0.00,,---,0.00,VWS V14.01,2013-02-17 23:34:00,
2013-02-17 15:39:00,67.9,36.2,29.91,West,261,2.0,7.0,31,0.00,,---,0.00,VWS V14.01,2013-02-17 23:39:00,
2013-02-17 15:44:00,68.1,36.3,29.91,WSW,247,2.0,7.0,31,0.00,,---,0.00,VWS V14.01,2013-02-17 23:44:00,
2013-02-17 15:49:00,68.3,35.7,29.91,WSW,250,0.0,7.0,30,0.00,,---,0.00,VWS V14.01,2013-02-17 23:49:00,
2013-02-17 15:54:00,68.5,35.9,29.91,WSW,252,1.0,7.0,30,0.00,,---,0.00,VWS V14.01,2013-02-17 23:54:00,
2013-02-17 15:59:00,68.5,35.9,29.91,SW,225,2.0,7.0,30,0.00,,---,0.00,VWS V14.01,2013-02-17 23:59:00,
2013-02-17 16:04:00,68.3,36.5,29.91,SSW,207,0.0,3.0,31,0.00,,---,0.00,VWS V14.01,2013-02-18 00:04:00,
2013-02-17 16:09:00,68.3,35.7,29.91,SSW,209,1.0,3.0,30,0.00,,---,0.00,VWS V14.01,2013-02-18 00:09:00,
2013-02-17 16:14:00,68.4,35.8,29.91,West,259,0.0,3.0,30,0.00,,---,0.00,VWS V14.01,2013-02-18 00:14:00,
2013-02-17 16:19:00,68.6,36.0,29.91,WSW,248,3.0,4.0,30,0.00,,---,0.00,VWS V14.01,2013-02-18 00:19:00,
2013-02-17 16:24:00,68.6,35.1,29.91,West,261,0.0,4.0,29,0.00,,---,0.00,VWS V14.01,2013-02-18 00:24:00,
2013-02-17 16:29:00,68.6,35.1,29.91,SW,232,0.0,4.0,29,0.00,,---,0.00,VWS V14.01,2013-02-18 00:29:00,
2013-02-17 16:34:00,68.4,35.8,29.91,WSW,237,1.0,4.0,30,0.00,,---,0.00,VWS V14.01,2013-02-18 00:34:00,
2013-02-17 16:39:00,68.3,34.8,29.91,SSW,193,1.0,4.0,29,0.00,,---,0.00,VWS V14.01,2013-02-18 00:39:00,
2013-02-17 16:44:00,68.1,35.5,29.91,SW,221,1.0,4.0,30,0.00,,---,0.00,VWS V14.01,2013-02-18 00:44:00,
2013-02-17 16:49:00,67.6,34.2,29.91,WSW,254,1.0,4.0,29,0.00,,---,0.00,VWS V14.01,2013-02-18 00:49:00,
2013-02-17 16:54:00,67.1,34.7,29.91,WSW,254,1.0,4.0,30,0.00,,---,0.00,VWS V14.01,2013-02-18 00:54:00,
2013-02-17 16:59:00,66.8,35.2,29.91,WSW,254,0.0,4.0,31,0.00,,---,0.00,VWS V14.01,2013-02-18 00:59:00,
2013-02-17 17:04:00,66.3,34.8,29.91,WSW,252,1.0,1.0,31,0.00,,---,0.00,VWS V14.01,2013-02-18 01:04:00,
2013-02-17 17:09:00,65.9,34.4,29.91,WSW,252,0.0,2.0,31,0.00,,---,0.00,VWS V14.01,2013-02-18 01:09:00,
2013-02-17 17:14:00,65.4,35.6,29.90,SW,216,0.0,2.0,33,0.00,,---,0.00,VWS V14.01,2013-02-18 01:14:00,
2013-02-17 17:19:00,64.9,35.9,29.90,SW,216,0.0,2.0,34,0.00,,---,0.00,VWS V14.01,2013-02-18 01:19:00,
2013-02-17 17:24:00,64.4,37.6,29.90,SW,216,0.0,2.0,37,0.00,,---,0.00,VWS V14.01,2013-02-18 01:24:00,
2013-02-17 17:29:00,63.6,38.9,29.91,SW,216,0.0,2.0,40,0.00,,---,0.00,VWS V14.01,2013-02-18 01:29:00,
2013-02-17 17:34:00,61.7,39.6,29.90,SW,216,0.0,2.0,44,0.00,,---,0.00,VWS V14.01,2013-02-18 01:34:00,
2013-02-17 17:39:00,59.4,39.2,29.90,SW,216,0.0,2.0,47,0.00,,---,0.00,VWS V14.01,2013-02-18 01:39:00,
2013-02-17 17:44:00,56.8,39.9,29.91,SW,216,0.0,2.0,53,0.00,,---,0.00,VWS V14.01,2013-02-18 01:44:00,
2013-02-17 17:49:00,54.8,40.3,29.91,SW,216,0.0,2.0,58,0.00,,---,0.00,VWS V14.01,2013-02-18 01:49:00,
2013-02-17 17:54:00,53.4,39.9,29.91,SW,216,0.0,2.0,60,0.00,,---,0.00,VWS V14.01,2013-02-18 01:54:00,
2013-02-17 17:59:00,52.2,39.6,29.91,WSW,246,0.0,2.0,62,0.00,,---,0.00,VWS V14.01,2013-02-18 01:59:00,
2013-02-17 18:04:00,51.6,39.8,29.91,WSW,246,0.0,1.0,64,0.00,,---,0.00,VWS V14.01,2013-02-18 02:04:00,
2013-02-17 18:09:00,51.4,39.7,29.91,WSW,246,0.0,1.0,64,0.00,,---,0.00,VWS V14.01,2013-02-18 02:09:00,
2013-02-17 18:14:00,50.8,39.9,29.91,WSW,246,0.0,1.0,66,0.00,,---,0.00,VWS V14.01,2013-02-18 02:14:00,
2013-02-17 18:19:00,50.2,39.3,29.91,WSW,246,0.0,1.0,66,0.00,,---,0.00,VWS V14.01,2013-02-18 02:19:00,
2013-02-17 18:24:00,49.6,39.1,29.91,WSW,246,0.0,1.0,67,0.00,,---,0.00,VWS V14.01,2013-02-18 02:24:00,
2013-02-17 18:29:00,49.3,38.8,29.92,WSW,246,0.0,1.0,67,0.00,,---,0.00,VWS V14.01,2013-02-18 02:29:00,
2013-02-17 18:34:00,48.6,38.2,29.92,WSW,246,0.0,1.0,67,0.00,,---,0.00,VWS V14.01,2013-02-18 02:34:00,
2013-02-17 18:39:00,48.1,38.0,29.92,WSW,246,1.0,1.0,68,0.00,,---,0.00,VWS V14.01,2013-02-18 02:39:00,
2013-02-17 18:44:00,47.7,38.0,29.92,WSW,246,0.0,2.0,69,0.00,,---,0.00,VWS V14.01,2013-02-18 02:44:00,
2013-02-17 18:49:00,47.5,37.8,29.92,WSW,246,0.0,2.0,69,0.00,,---,0.00,VWS V14.01,2013-02-18 02:49:00,
2013-02-17 18:54:00,47.4,38.1,29.92,WSW,246,0.0,2.0,70,0.00,,---,0.00,VWS V14.01,2013-02-18 02:54:00,
2013-02-17 18:59:00,47.6,37.6,29.92,WSW,246,1.0,2.0,68,0.00,,---,0.00,VWS V14.01,2013-02-18 02:59:00,
2013-02-17 19:04:00,47.2,36.8,29.92,WSW,246,0.0,1.0,67,0.00,,---,0.00,VWS V14.01,2013-02-18 03:04:00,
2013-02-17 19:09:00,46.7,36.3,29.93,WSW,246,0.0,1.0,67,0.00,,---,0.00,VWS V14.01,2013-02-18 03:09:00,
2013-02-17 19:14:00,46.3,36.3,29.93,WSW,246,1.0,2.0,68,0.00,,---,0.00,VWS V14.01,2013-02-18 03:14:00,
2013-02-17 19:19:00,46.0,36.4,29.92,WSW,255,2.0,3.0,69,0.00,,---,0.00,VWS V14.01,2013-02-18 03:19:00,
2013-02-17 19:24:00,45.6,36.4,29.93,WSW,255,0.0,3.0,70,0.00,,---,0.00,VWS V14.01,2013-02-18 03:24:00,
2013-02-17 19:29:00,45.4,36.2,29.93,WSW,255,1.0,3.0,70,0.00,,---,0.00,VWS V14.01,2013-02-18 03:29:00,
2013-02-17 19:34:00,45.5,36.3,29.93,WSW,255,0.0,3.0,70,0.00,,---,0.00,VWS V14.01,2013-02-18 03:34:00,
2013-02-17 19:39:00,45.7,36.5,29.93,North,5,0.0,3.0,70,0.00,,---,0.00,VWS V14.01,2013-02-18 03:39:00,
2013-02-17 19:44:00,45.1,36.3,29.93,North,5,1.0,3.0,71,0.00,,---,0.00,VWS V14.01,2013-02-18 03:44:00,
2013-02-17 19:49:00,44.2,35.8,29.93,North,5,1.0,3.0,72,0.00,,---,0.00,VWS V14.01,2013-02-18 03:49:00,
2013-02-17 19:54:00,43.9,35.8,29.93,North,5,0.0,3.0,73,0.00,,---,0.00,VWS V14.01,2013-02-18 03:54:00,
2013-02-17 19:59:00,44.7,35.9,29.93,North,5,1.0,3.0,71,0.00,,---,0.00,VWS V14.01,2013-02-18 03:59:00,
2013-02-17 20:04:00,44.1,35.3,29.93,North,5,1.0,1.0,71,0.00,,---,0.00,VWS V14.01,2013-02-18 04:04:00,
2013-02-17 20:09:00,43.5,35.8,29.93,North,5,0.0,2.0,74,0.00,,---,0.00,VWS V14.01,2013-02-18 04:09:00,
2013-02-17 20:14:00,43.8,35.7,29.93,North,5,0.0,2.0,73,0.00,,---,0.00,VWS V14.01,2013-02-18 04:14:00,
2013-02-17 20:19:00,44.6,35.8,29.93,North,5,1.0,2.0,71,0.00,,---,0.00,VWS V14.01,2013-02-18 04:19:00,
2013-02-17 20:24:00,44.1,35.3,29.93,North,5,1.0,2.0,71,0.00,,---,0.00,VWS V14.01,2013-02-18 04:24:00,
2013-02-17 20:29:00,43.2,35.1,29.94,North,5,1.0,2.0,73,0.00,,---,0.00,VWS V14.01,2013-02-18 04:29:00,
2013-02-17 20:34:00,42.5,34.8,29.94,North,5,2.0,2.0,74,0.00,,---,0.00,VWS V14.01,2013-02-18 04:34:00,
2013-02-17 20:39:00,42.0,35.0,29.94,North,5,0.0,2.0,76,0.00,,---,0.00,VWS V14.01,2013-02-18 04:39:00,
2013-02-17 20:44:00,42.2,35.2,29.94,NNE,15,1.0,3.0,76,0.00,,---,0.00,VWS V14.01,2013-02-18 04:44:00,
2013-02-17 20:49:00,43.4,35.7,29.94,NNE,19,2.0,3.0,74,0.00,,---,0.00,VWS V14.01,2013-02-18 04:49:00,
2013-02-17 20:54:00,43.4,35.3,29.94,NNE,19,0.0,3.0,73,0.00,,---,0.00,VWS V14.01,2013-02-18 04:54:00,
2013-02-17 20:59:00,42.9,34.8,29.94,NNE,19,0.0,3.0,73,0.00,,---,0.00,VWS V14.01,2013-02-18 04:59:00,
2013-02-17 21:00:00,42.9,34.8,29.94,NNE,19,0.0,3.0,73,0.00,,---,0.00,VWS V14.01,2013-02-18 05:00:00,
2013-02-17 21:05:00,42.7,35.0,29.94,NNE,19,0.0,1.0,74,0.00,,---,0.00,VWS V14.01,2013-02-18 05:05:00,
2013-02-17 21:10:00,42.4,35.0,29.94,NNE,19,1.0,2.0,75,0.00,,---,0.00,VWS V14.01,2013-02-18 05:10:00,
2013-02-17 21:15:00,42.3,35.3,29.94,NNE,19,0.0,2.0,76,0.00,,---,0.00,VWS V14.01,2013-02-18 05:15:00,
2013-02-17 21:20:00,42.2,34.9,29.94,NNE,19,0.0,2.0,75,0.00,,---,0.00,VWS V14.01,2013-02-18 05:20:00,
2013-02-17 21:25:00,41.8,34.5,29.94,NNE,19,0.0,2.0,75,0.00,,---,0.00,VWS V14.01,2013-02-18 05:25:00,
2013-02-17 21:30:00,41.3,34.3,29.94,NNE,18,2.0,2.0,76,0.00,,---,0.00,VWS V14.01,2013-02-18 05:30:00,
2013-02-17 21:35:00,40.7,34.4,29.94,NNE,18,1.0,3.0,78,0.00,,---,0.00,VWS V14.01,2013-02-18 05:35:00,
2013-02-17 21:40:00,40.4,34.1,29.94,NNE,18,1.0,3.0,78,0.00,,---,0.00,VWS V14.01,2013-02-18 05:40:00,
2013-02-17 21:45:00,40.2,34.2,29.94,NNE,18,2.0,3.0,79,0.00,,---,0.00,VWS V14.01,2013-02-18 05:45:00,
2013-02-17 21:50:00,40.1,34.4,29.94,NNE,18,0.0,3.0,80,0.00,,---,0.00,VWS V14.01,2013-02-18 05:50:00,
2013-02-17 21:55:00,40.2,34.2,29.94,NNE,18,1.0,3.0,79,0.00,,---,0.00,VWS V14.01,2013-02-18 05:55:00,
2013-02-17 22:00:00,39.7,34.0,29.95,NNE,18,1.0,3.0,80,0.00,,---,0.00,VWS V14.01,2013-02-18 06:00:00,
2013-02-17 22:05:00,39.9,34.5,29.94,NNE,18,2.0,2.0,81,0.00,,---,0.00,VWS V14.01,2013-02-18 06:05:00,
2013-02-17 22:10:00,39.9,34.2,29.95,NNE,18,0.0,2.0,80,0.00,,---,0.00,VWS V14.01,2013-02-18 06:10:00,
2013-02-17 22:15:00,39.4,34.1,29.94,NNE,18,1.0,2.0,81,0.00,,---,0.00,VWS V14.01,2013-02-18 06:15:00,
2013-02-17 22:20:00,39.3,34.0,29.95,NNE,18,0.0,2.0,81,0.00,,---,0.00,VWS V14.01,2013-02-18 06:20:00,
2013-02-17 22:25:00,39.6,34.0,29.95,NNE,18,0.0,2.0,80,0.00,,---,0.00,VWS V14.01,2013-02-18 06:25:00,
2013-02-17 22:30:00,39.6,34.3,29.95,NNE,18,1.0,2.0,81,0.00,,---,0.00,VWS V14.01,2013-02-18 06:30:00,
2013-02-17 22:35:00,40.0,34.3,29.95,NNE,18,0.0,2.0,80,0.00,,---,0.00,VWS V14.01,2013-02-18 06:35:00,
2013-02-17 22:40:00,40.1,34.4,29.94,NNE,18,1.0,2.0,80,0.00,,---,0.00,VWS V14.01,2013-02-18 06:40:00,
2013-02-17 22:45:00,40.1,34.8,29.95,NNE,18,0.0,2.0,81,0.00,,---,0.00,VWS V14.01,2013-02-18 06:45:00,
2013-02-17 22:50:00,40.7,35.0,29.94,NNE,18,0.0,2.0,80,0.00,,---,0.00,VWS V14.01,2013-02-18 06:50:00,
2013-02-17 22:55:00,40.9,34.9,29.94,NNE,18,0.0,2.0,79,0.00,,---,0.00,VWS V14.01,2013-02-18 06:55:00,
2013-02-17 23:00:00,40.8,34.5,29.95,NNE,18,0.0,2.0,78,0.00,,---,0.00,VWS V14.01,2013-02-18 07:00:00,
2013-02-17 23:05:00,41.1,35.1,29.95,NNE,18,3.0,3.0,79,0.00,,---,0.00,VWS V14.01,2013-02-18 07:05:00,
2013-02-17 23:10:00,40.4,33.8,29.95,NNE,18,1.0,3.0,77,0.00,,---,0.00,VWS V14.01,2013-02-18 07:10:00,
2013-02-17 23:15:00,39.3,33.7,29.95,NNE,18,2.0,3.0,80,0.00,,---,0.00,VWS V14.01,2013-02-18 07:15:00,
2013-02-17 23:20:00,38.6,33.6,29.95,NNE,18,0.0,3.0,82,0.00,,---,0.00,VWS V14.01,2013-02-18 07:20:00,
2013-02-17 23:25:00,38.9,34.5,29.94,NNE,18,1.0,3.0,84,0.00,,---,0.00,VWS V14.01,2013-02-18 07:25:00,
2013-02-17 23:30:00,39.5,34.5,29.94,NNE,18,2.0,3.0,82,0.00,,---,0.00,VWS V14.01,2013-02-18 07:30:00,
2013-02-17 23:35:00,39.8,34.5,29.94,NNE,18,0.0,3.0,81,0.00,,---,0.00,VWS V14.01,2013-02-18 07:35:00,
2013-02-17 23:40:00,40.4,35.3,29.94,NNE,18,0.0,3.0,82,0.00,,---,0.00,VWS V14.01,2013-02-18 07:40:00,
2013-02-17 23:45:00,41.3,35.6,29.94,NNE,18,0.0,3.0,80,0.00,,---,0.00,VWS V14.01,2013-02-18 07:45:00,
2013-02-17 23:50:00,40.7,34.1,29.94,NNE,18,0.0,3.0,77,0.00,,---,0.00,VWS V14.01,2013-02-18 07:50:00,
2013-02-17 23:55:00,39.7,34.4,29.94,NNE,18,0.0,3.0,81,0.00,,---,0.00,VWS V14.01,2013-02-18 07:55:00,